Location: Bukit Lungun
(2.6833°N, 113.9667°E)
Time: 11:19:47
(UTC+00:00)

GPS 2-17 Rocket1 - Pass Details

Date: 02 March 2021
Orbit: 571 x 658 km, 20.3° (Epoch: 20 April)

Event Time Altitude Azimuth Distance (km) Brightness Sun altitude
Exits shadow 21:05:26 39° 348° (NNW) 945 3.8 -22.8°
Drops below altitude 10° 21:09:35 10° 50° (NE) 1,987 6.2 -21.8°
Sets 21:12:01 0° 57° (ENE) 2,876 7.3 -21.2°
